Location: Tel Aviv
(32.0670°N, 34.7670°E)
Time: 04:53:19
(UTC+03:00)

Vanguard 2 - Pass Details

Date: 30 January 2022
Orbit: 552 x 2935 km, 32.9° (Epoch: 25 May)

Event Time Altitude Azimuth Distance (km) Brightness Sun altitude
Rises 02:39:55 0° 276° (W) 6,119 - -50.1°
Reaches altitude 10° 02:45:09 10° 263° (W) 5,400 - -49.0°
Maximum altitude 02:56:17 22° 221° (SW) 4,786 - -46.6°
Exits shadow 03:03:21 17° 193° (SSW) 5,150 11.5 -45.2°
Drops below altitude 10° 03:08:03 10° 179° (S) 5,653 11.8 -44.2°
Sets 03:13:53 0° 165° (SSE) 6,462 12.3 -42.9°
